User: anonymous   Login
Location: Newark
(23.5328°S, 46.7919°W)
Time: 03:08:10
(UTC+00:00)
Language:

ISS - Orbit

View from above orbital plane
View from above orbital plane
View from above satellite
View from above satellite

Ground track
Ground track

The orbit data is extracted from the following two-line orbital elements,

1 25544U 98067A   21103.84943184  .00000176  00000-0  11381-4 0  9990
2 25544  51.6434 300.9481 0002858 223.8443 263.8789 15.48881793278621
Epoch (UTC): 13 April 2021 20:23:10
Eccentricity: 0.0002858
inclination: 51.6434°
perigee height: 418 km
apogee height: 422 km
right ascension of ascending node: 300.9481°
argument of perigee: 223.8443°
revolutions per day: 15.48881793
mean anomaly at epoch: 263.8789°
orbit number at epoch: 27862

The dashed part of the orbit path shows where the satellite is in the earth's shadow,  

DLR